map of WAA home
Great Circle Mapper logo
WAA - Airport
Location
City:  Wales, Alaska, United States
ICAO / IATA:PAIW / WAA
FAA:IWK

Details
Type:Airport (Airfield)
Use:Public/Civil
Latitude:6537'21"N (65.622556)
Longitude:16805'42"W (-168.094971)
Datum:WGS 1984
Elevation:25 ft (8 m)
Variation:9.7E (WMM2015 magnetic declination)
Runways:1
Longest:3990 × 75 ft (1216 × 23 m)

Time
Time Zone:UTC-9 (DST-8)
Local Time:

Weather
METAR:PAIW 180458Z AUTO 07014KT 7SM -SN OVC008 M09/M09 A2963 RMK AO2 SNB11 SLP035 P0000 T10891094 FZRANO

Related Locations
Nearby:
Farthest:NZSP: 10739 mi / 17283 km
Amundsen-Scott South Pole Station [Jack F. Paulus Skiway], AQ

Find:

   beyond  
but within

Other Information
Maps:
NOTAMs:
Links:
Sources:

  
flag of United States
flag of Alaska
  

Sectional Chart

Flight Planning
at skyvector.com

Satellite Image

Google Maps Satellite View

 

Copyright © 2004-2014 Karl L. Swartz. All rights reserved.
The Great Circle Mapper name and logo are trademarks of the Great Circle Mapper.
All other trademarks mentioned herein belong to their respective owners.
Please see credits for attibutions and further copyright information.

  Follow gcmap on Facebook Follow gcmap on Twitter

hCard Microformat

Geo Microformat